EW6028 Umbertide IT current weather conditions

sailwx.info

Wind from 180 at 0 knots gusting 3

Air temperature 26.1° C
Dewpoint 20.9° C

Last reported at 2020-Aug-09 08:00 UTC.
Time now 2020-Aug-09 09:06 UTC

Location: N 43°19' E 012°19'.
View on Google Maps.

See reports from other nearby stations

  
Tides and Currents Weather Stations Pressure Air Temp Water Temp Dewpoint Dewpoint Depression Visibility Wind Speed Wind Dir Waves Ship Positions
date/time (UTC)wind fromknots sea level pressurealtimeterstation pressurevisibilityair tempwater tempwave heightnotes
2020-Aug-09 08:00 180 0 gusting 3 26.1
2020-Aug-09 07:46 020 2 gusting 6 25.0
2020-Aug-09 07:30 355 1 gusting 6 23.9
2020-Aug-09 07:15 011 1 gusting 3 22.8
2020-Aug-09 07:00 350 2 gusting 4 21.7
2020-Aug-09 06:45 348 1 gusting 5 20.6
2020-Aug-09 06:30 346 2 gusting 6 20.0
2020-Aug-09 06:16 355 0 gusting 5 19.4
2020-Aug-09 06:01 026 1 gusting 4 18.9
2020-Aug-09 05:47 028 2 gusting 4 18.3
2020-Aug-09 05:31 234 17.8
2020-Aug-09 05:16 355 1 gusting 3 17.2
2020-Aug-09 05:01 322 16.7
2020-Aug-09 04:47 056 16.7
2020-Aug-09 04:32 016 16.7
2020-Aug-09 04:15 202 16.7
2020-Aug-09 04:02 355 1 gusting 4 16.7
2020-Aug-09 03:46 009 17.2
2020-Aug-09 03:31 355 17.2
2020-Aug-09 03:16 360 17.2
2020-Aug-09 03:00 360 17.2
2020-Aug-09 02:46 028 1 gusting 6 17.2
2020-Aug-09 02:31 005 1 gusting 4 17.8
2020-Aug-09 02:15 005 17.8
2020-Aug-09 02:00 172 17.8
2020-Aug-09 01:45 178 18.3
2020-Aug-09 01:30 138 18.3
2020-Aug-09 01:16 019 18.3
2020-Aug-09 01:00 011 18.3
2020-Aug-09 00:45 033 0 gusting 3 18.3
2020-Aug-09 00:30 019 0 gusting 2 18.9
2020-Aug-09 00:15 340 1 gusting 5 18.9
2020-Aug-09 00:00 278 18.9
2020-Aug-08 23:45 320 0 gusting 4 19.4
2020-Aug-08 23:30 360 0 gusting 3 19.4
2020-Aug-08 23:15 360 19.4
2020-Aug-08 23:00 009 0 gusting 2 19.4
2020-Aug-08 22:45 046 1 gusting 3 20.0
2020-Aug-08 22:30 346 20.0
2020-Aug-08 22:15 182 20.0
2020-Aug-08 22:00 188 20.6
2020-Aug-08 21:45 182 20.6
2020-Aug-08 21:30 182 21.1
2020-Aug-08 21:17 182 21.1
2020-Aug-08 21:02 182 21.7
2020-Aug-08 20:46 182 22.8
2020-Aug-08 20:31 182 23.3
2020-Aug-08 20:16 182 0 gusting 3 23.3
2020-Aug-08 20:02 017 0 gusting 2 23.9
2020-Aug-08 19:46 332 0 gusting 2 23.9
2020-Aug-08 19:32 009 1 gusting 4 24.4
2020-Aug-08 19:16 005 1 gusting 4 25.0
2020-Aug-08 19:01 005 0 gusting 4 25.6
2020-Aug-08 18:46 022 1 gusting 3 26.1
2020-Aug-08 18:31 015 0 gusting 3 26.7
2020-Aug-08 18:17 005 0 gusting 2 27.2
2020-Aug-08 18:03 338 0 gusting 2 27.8
2020-Aug-08 17:46 333 0 gusting 4 27.8
2020-Aug-08 17:32 028 0 gusting 3 28.3
2020-Aug-08 17:16 026 3 gusting 11 28.9
2020-Aug-08 17:01 040 1 gusting 7 29.4
2020-Aug-08 16:47 059 1 gusting 8 29.4
2020-Aug-08 16:30 025 2 gusting 5 30.0
2020-Aug-08 16:16 026 2 gusting 8 30.0
2020-Aug-08 16:01 019 3 gusting 8 30.0
2020-Aug-08 15:45 040 4 gusting 8 30.6
2020-Aug-08 15:31 032 4 gusting 10 30.6
2020-Aug-08 15:16 012 6 gusting 13 30.6
2020-Aug-08 15:02 041 6 gusting 14 30.6
2020-Aug-08 14:46 046 6 gusting 11 30.6
2020-Aug-08 14:31 009 4 gusting 13 30.6
2020-Aug-08 14:16 062 4 gusting 12 30.6
2020-Aug-08 14:00 025 5 gusting 14 30.6
2020-Aug-08 13:46 010 4 gusting 12 30.6
2020-Aug-08 13:31 034 5 gusting 13 30.6
2020-Aug-08 13:16 013 6 gusting 19 30.6
2020-Aug-08 13:01 059 6 gusting 13 31.1
2020-Aug-08 12:45 315 4 gusting 19 30.6
2020-Aug-08 12:31 032 6 gusting 14 30.6
2020-Aug-08 12:16 030 6 gusting 17 30.6
2020-Aug-08 12:01 031 6 gusting 13 30.6
2020-Aug-08 11:46 360 6 gusting 13 30.6
2020-Aug-08 11:30 043 5 gusting 12 30.6
2020-Aug-08 11:16 035 5 gusting 13 30.6
2020-Aug-08 11:00 010 6 gusting 12 30.6
2020-Aug-08 10:45 044 4 gusting 16 30.6
2020-Aug-08 10:30 028 3 gusting 13 30.6
2020-Aug-08 10:15 059 5 gusting 15 30.0
2020-Aug-08 10:00 340 6 gusting 13 30.0
2020-Aug-08 09:45 019 6 gusting 11 30.0
2020-Aug-08 09:30 038 3 gusting 10 29.4
2020-Aug-08 09:15 360 6 gusting 14 28.9
2020-Aug-08 09:00 355 4 gusting 12 28.9
2020-Aug-08 08:46 342 4 gusting 10 28.3
2020-Aug-08 08:32 038 6 gusting 13 28.3
2020-Aug-08 08:16 348 4 gusting 11 27.8
2020-Aug-08 08:01 029 4 gusting 7 27.2
2020-Aug-08 07:46 319 1 gusting 4 26.1
2020-Aug-08 07:31 045 2 gusting 6 25.0
2020-Aug-08 07:15 343 1 gusting 4 23.9
2020-Aug-08 07:00 040 1 gusting 4 22.2
2020-Aug-08 06:45 030 1 gusting 5 21.1
2020-Aug-08 06:31 009 1 gusting 4 20.0
2020-Aug-08 06:15 213 0 gusting 3 18.9
2020-Aug-08 06:01 254 18.3
2020-Aug-08 05:45 169 1 gusting 5 17.8
2020-Aug-08 05:30 327 1 gusting 5 16.7
2020-Aug-08 05:16 339 16.7
2020-Aug-08 05:01 157 16.1
2020-Aug-08 04:46 014 16.1
2020-Aug-08 04:33 182 16.1
2020-Aug-08 04:16 326 16.1
2020-Aug-08 04:01 020 16.1
2020-Aug-08 03:46 229 16.1
2020-Aug-08 03:31 229 16.1
2020-Aug-08 03:17 349 16.1
2020-Aug-08 03:01 349 16.1
2020-Aug-08 02:47 349 16.7
2020-Aug-08 02:31 348 16.7
2020-Aug-08 02:16 152 16.7
2020-Aug-08 02:01 152 16.7
2020-Aug-08 01:47 323 16.7
2020-Aug-08 01:31 028 0 gusting 4 17.2
2020-Aug-08 01:16 350 17.2
2020-Aug-08 01:01 014 17.2
2020-Aug-08 00:45 035 17.2
2020-Aug-08 00:31 315 17.8
2020-Aug-08 00:15 343 0 gusting 4 17.8
2020-Aug-08 00:00 022 17.8
2020-Aug-07 23:46 032 2 gusting 6 18.3
2020-Aug-07 23:30 348 1 gusting 3 18.3
2020-Aug-07 23:16 348 0 gusting 3 18.3
2020-Aug-07 23:02 175 0 gusting 4 18.9
2020-Aug-07 22:46 355 0 gusting 2 18.9
2020-Aug-07 22:30 360 19.4
2020-Aug-07 22:15 158 0 gusting 2 19.4
2020-Aug-07 22:00 010 20.0
2020-Aug-07 21:45 350 0 gusting 3 20.0
2020-Aug-07 21:30 039 1 gusting 4 20.6
2020-Aug-07 21:15 355 1 gusting 4 21.1
2020-Aug-07 21:00 019 0 gusting 3 21.7
2020-Aug-07 20:45 019 22.2
2020-Aug-07 20:30 344 0 gusting 3 22.8
2020-Aug-07 20:15 033 0 gusting 3 22.8
2020-Aug-07 20:00 010 1 gusting 4 23.3
2020-Aug-07 19:45 005 1 gusting 4 23.3
2020-Aug-07 19:31 360 1 gusting 5 23.9
2020-Aug-07 19:15 314 2 gusting 5 24.4
2020-Aug-07 19:00 351 0 gusting 4 25.0
2020-Aug-07 18:45 360 0 gusting 3 25.6
2020-Aug-07 18:30 016 1 gusting 5 25.6
2020-Aug-07 18:00 032 2 gusting 7 26.7
2020-Aug-07 17:45 044 3 gusting 6 26.7
2020-Aug-07 17:30 023 1 gusting 8 27.2
2020-Aug-07 17:15 016 0 gusting 7 27.8
2020-Aug-07 17:00 043 2 gusting 11 28.3
2020-Aug-07 16:45 050 3 gusting 8 28.9
2020-Aug-07 16:30 038 3 gusting 7 28.9
2020-Aug-07 16:16 021 4 gusting 9 29.4
2020-Aug-07 16:02 349 6 gusting 11 29.4
2020-Aug-07 15:46 360 3 gusting 7 29.4
2020-Aug-07 15:31 013 6 gusting 12 29.4
2020-Aug-07 15:16 355 5 gusting 9 29.4
2020-Aug-07 15:02 360 4 gusting 11 30.0
2020-Aug-07 14:46 041 4 gusting 11 30.0
2020-Aug-07 14:31 022 2 gusting 9 30.0
2020-Aug-07 14:16 040 3 gusting 11 30.0
2020-Aug-07 14:01 030 3 gusting 9 30.0
2020-Aug-07 13:46 044 3 gusting 9 30.0
2020-Aug-07 13:31 012 3 gusting 11 30.0
2020-Aug-07 13:16 346 3 gusting 9 29.4
2020-Aug-07 13:02 017 4 gusting 11 30.0
2020-Aug-07 12:45 339 4 gusting 9 29.4
2020-Aug-07 12:31 051 3 gusting 13 29.4
2020-Aug-07 12:16 052 0 gusting 6 28.9
2020-Aug-07 12:01 026 0 gusting 8 28.3
2020-Aug-07 11:46 027 3 gusting 6 28.3
2020-Aug-07 11:32 024 2 gusting 8 28.3
2020-Aug-07 11:15 019 4 gusting 8 28.3
2020-Aug-07 11:00 338 2 gusting 7 28.9
2020-Aug-07 10:45 030 2 gusting 6 28.9
2020-Aug-07 10:30 028 2 gusting 6 28.9
2020-Aug-07 10:15 042 2 gusting 5 28.3
2020-Aug-07 10:01 348 2 gusting 11 28.3
2020-Aug-07 09:45 016 2 gusting 6 27.8
2020-Aug-07 09:30 023 2 gusting 5 27.8
2020-Aug-07 09:15 011 3 gusting 8 27.2
2020-Aug-07 09:00 311 3 gusting 9 26.7